Temperature
20 19 20 19 19 19 19 19 19 19 19 19 19 19 19 19 19 19 19 18 18 18 18 18 18 18 18 18 18 18 17 17 17 17 17 17 17 17 17 17 17 16 17
20 19 20 19 19 19 19 19 19 19 19 19 19 19 19 19 19 19 18 18 18 18 18 18 18 18 18 18 18 17 17 17 17 17 17 17 17 17 17 17 17 16 17
20 19 20 20 19 19 19 19 19 19 19 19 19 19 19 19 19 18 18 18 18 18 18 18 18 18 18 18 18 17 17 17 17 17 17 17 17 17 17 17 17 17 17
20 19 19 20 20 19 19 19 19 19 19 19 19 19 19 19 18 18 18 18 18 18 18 18 18 18 18 18 17 17 17 17 17 17 17 16 16 17 17 17 17 17 17
20 19 20 20 20 20 19 19 19 19 19 19 19 19 19 18 18 18 18 18 18 18 18 18 18 18 18 17 17 17 17 17 17 17 16 16 16 17 17 17 17 17 17
19 19 20 20 20 20 19 19 19 19 19 19 19 19 19 18 18 18 18 18 18 18 18 18 18 17 17 17 17 17 17 17 17 17 16 16 16 17 17 17 17 17 17
20 19 19 20 20 19 19 19 19 19 19 19 19 18 18 18 18 18 18 18 18 18 18 17 17 17 17 17 17 17 17 17 17 17 16 16 16 17 17 17 17 17 16
20 19 19 20 19 19 19 19 19 19 19 19 18 18 18 18 18 18 18 18 18 18 17 17 17 17 17 17 17 17 17 17 17 17 16 16 17 17 17 17 17 16 16
20 19 19 19 19 19 19 19 19 19 19 18 18 18 18 18 18 18 18 18 18 17 17 17 17 17 17 17 17 17 17 17 18 17 16 16 17 17 17 17 17 16 16
20 19 19 18 18 18 18 19 19 18 18 18 18 18 18 18 18 18 17 17 17 17 17 17 17 17 17 17 17 17 17 17 18 17 17 16 17 17 16 16 16 16 16
19 19 19 18 18 18 18 18 18 18 18 18 18 18 18 17 17 17 17 17 17 17 17 17 17 17 17 17 17 17 17 17 17 17 16 17 17 16 16 16 16 16 16
19 19 19 18 18 18 18 17 17 17 18 18 17 17 17 17 17 17 17 17 17 17 17 17 17 17 17 17 17 17 17 17 17 17 16 17 17 16 16 16 16 16 16
19 19 19 18 18 18 18 17 17 17 17 17 17 17 17 17 17 17 17 17 17 17 17 17 17 17 17 17 17 17 17 17 17 17 16 17 17 16 16 16 16 16 16
19 19 19 18 18 18 18 17 17 17 17 17 17 17 17 17 17 17 17 17 17 17 17 17 17 17 17 17 17 17 17 17 17 17 17 17 17 16 16 16 16 16 16
18 18 18 18 18 18 18 18 18 18 18 17 17 17 17 17 17 17 17 17 17 17 17 17 17 17 17 17 17 17 17 17 17 17 16 17 17 16 16 16 16 16 16
19 18 18 18 18 18 18 18 18 17 18 17 17 17 17 17 17 17 17 17 17 17 17 17 17 17 17 17 17 17 17 17 16 16 16 16 17 16 16 16 16 16 16
19 19 18 18 18 18 18 18 18 17 17 17 17 17 17 17 17 17 17 17 17 17 16 17 17 17 17 17 17 17 17 16 16 16 16 16 16 16 16 16 16 16 16
19 19 18 18 18 18 18 18 17 17 17 17 17 17 17 17 17 17 17 17 17 17 17 17 17 17 17 17 17 17 17 16 16 16 16 16 16 16 16 16 16 16 16
19 19 18 18 18 18 18 17 17 17 17 17 17 17 17 17 17 17 17 17 17 17 17 17 17 17 17 17 17 17 17 17 16 16 16 16 16 16 16 16 16 16 16
19 19 18 18 18 18 17 17 17 17 17 17 17 17 17 17 17 17 17 17 17 17 17 17 16 16 17 17 17 17 17 17 17 16 16 16 16 16 16 15 16 16 16
18 18 18 18 18 17 17 17 17 17 17 17 17 17 17 17 17 17 17 17 17 17 16 16 16 16 17 17 17 17 17 17 17 16 16 16 16 16 16 15 16 15 16
18 18 18 18 18 17 17 17 17 17 17 17 17 17 17 17 17 17 17 17 17 16 16 16 16 17 17 17 17 18 18 18 17 17 17 16 16 16 16 16 16 15 15
18 18 18 18 17 17 17 17 16 16 16 16 17 17 17 17 17 17 17 17 16 16 16 16 16 16 17 17 17 18 18 18 18 17 17 17 16 16 16 16 16 16 15
18 18 18 17 17 17 17 16 16 16 17 17 17 17 17 17 17 17 17 17 16 16 16 16 16 16 16 17 17 17 17 18 18 18 18 17 17 16 16 16 16 16 16
18 18 17 17 17 17 17 17 17 17 17 17 17 17 17 17 17 17 17 17 16 16 16 16 16 16 16 17 17 17 17 17 17 18 18 18 17 17 17 16 16 16 16
18 18 17 17 17 17 17 17 17 17 17 17 17 17 17 17 17 17 17 17 16 16 16 16 16 16 16 16 17 17 17 17 18 18 18 18 18 18 17 17 17 16 16
Wind_Speed
15 18 18 16 15 16 17 18 18 18 17 17 16 15 14 14 13 13 13 13 13 13 13 14 14 14 14 14 14 14 15 15 15 16 17 16 16 16 15 16 16 17 17
19 20 20 17 17 17 18 18 18 18 17 17 16 15 14 14 13 13 13 13 13 14 14 14 14 14 14 14 15 15 15 15 16 17 17 16 15 15 14 13 14 17 17
20 21 21 18 18 17 18 18 18 18 17 16 15 15 14 13 13 13 13 13 14 14 14 15 15 15 14 15 15 15 15 15 15 14 14 15 15 14 15 16 18 17 16
21 21 20 20 19 18 18 18 17 17 16 16 15 14 14 13 13 13 13 13 14 14 14 15 15 15 15 15 14 14 15 14 12 9 11 13 14 15 15 16 16 16 15
19 20 21 21 19 18 18 17 17 17 16 15 14 14 14 13 13 13 13 13 14 14 14 14 14 14 14 14 14 14 14 12 8 6 12 13 14 14 15 15 15 15 14
19 20 22 21 20 19 18 17 17 16 15 15 14 14 13 13 13 13 13 13 14 14 14 14 14 14 13 13 13 14 13 9 7 11 11 12 14 14 14 14 14 14 13
19 19 22 20 19 19 18 17 16 15 15 14 14 13 13 13 12 13 13 13 13 13 13 13 13 12 12 12 12 12 10 4 8 11 10 12 13 13 13 13 13 13 13
18 19 21 20 19 18 17 17 16 15 15 14 14 13 13 13 12 13 13 13 13 12 12 12 11 11 11 11 11 11 8 4 10 10 10 12 13 12 12 13 13 13 12
17 17 19 20 19 18 17 16 15 15 14 14 13 13 13 12 12 12 12 12 12 12 11 11 10 10 10 10 10 10 6 1 6 8 10 11 12 11 12 12 12 12 11
16 16 17 18 18 18 17 16 15 14 14 14 13 13 13 13 12 12 12 12 11 11 10 10 9 9 9 9 9 10 8 5 7 9 9 11 11 10 11 11 11 11 11
15 15 16 16 16 16 16 17 16 14 13 14 13 13 12 11 12 11 12 12 11 11 10 9 8 8 8 9 9 9 8 4 7 7 9 13 10 9 10 10 10 10 11
17 16 15 15 14 14 14 15 13 13 13 11 11 12 9 8 7 10 13 10 10 10 9 8 8 9 8 8 10 9 5 5 6 7 10 11 9 9 9 9 9 10 10
17 16 15 14 14 13 11 12 11 10 11 10 10 10 8 8 8 9 9 10 9 9 8 9 9 5 4 4 3 4 4 4 4 6 11 10 8 8 8 8 9 9 9
18 17 16 14 13 12 11 10 10 9 9 9 10 10 9 6 6 6 6 7 7 6 5 5 4 4 4 4 4 4 4 3 5 6 10 9 8 8 8 8 8 8 9
17 16 15 14 13 11 10 9 10 9 9 9 10 9 8 7 6 6 5 4 5 5 5 3 4 4 4 5 4 4 3 4 5 5 9 9 8 7 8 7 8 8 8
16 14 14 15 14 12 10 9 8 9 9 9 9 10 9 7 6 6 6 5 4 4 3 3 4 4 3 3 4 4 3 4 5 4 7 10 9 7 7 7 8 8 8
15 15 14 15 14 14 12 10 9 9 10 8 8 10 9 8 7 6 5 5 5 5 4 4 4 4 4 4 4 4 4 3 5 4 4 6 9 9 7 6 7 8 8
15 14 15 13 14 13 11 9 8 9 9 8 8 9 9 8 8 6 5 5 5 5 4 4 3 3 3 3 4 3 4 4 4 4 5 5 4 6 9 8 7 7 7
15 15 15 14 14 13 11 10 9 8 8 8 9 9 9 9 9 7 5 5 6 5 4 4 4 3 4 3 4 3 3 3 4 4 4 4 4 4 6 10 8 7 7
14 14 15 15 14 13 10 9 7 8 8 8 9 9 10 9 9 8 6 6 6 5 4 3 3 3 3 3 3 3 3 3 3 4 4 4 4 5 5 6 8 9 9
13 14 15 15 14 12 11 11 10 9 9 8 8 10 10 10 9 8 6 6 6 5 5 5 5 6 5 4 3 4 4 4 3 3 3 3 4 4 4 5 5 5 8
13 14 14 15 15 14 11 10 8 8 8 8 7 8 10 10 10 9 7 7 7 5 6 5 5 5 5 5 4 3 4 5 5 4 4 5 4 5 6 7 5 5 5
12 13 12 13 13 14 13 9 8 7 7 8 8 8 9 11 10 9 9 8 7 7 6 6 6 6 5 5 4 3 3 3 4 4 4 4 4 4 5 5 7 6 7
11 11 11 12 12 13 13 12 14 11 10 10 9 9 9 11 11 11 10 8 7 7 6 8 7 6 6 5 5 4 3 2 2 3 5 5 5 5 5 5 5 7 7
11 11 11 12 12 13 14 13 13 12 10 9 9 10 10 10 10 11 10 9 8 7 7 6 6 7 6 6 5 5 4 3 5 4 2 3 5 5 5 5 5 6 6
10 10 11 11 12 12 13 13 13 13 12 11 11 11 11 9 9 10 10 9 9 7 7 7 6 7 6 6 5 5 5 4 5 4 3 4 4 4 4 4 5 6 6
Wind_Direction
150 142 142 141 136 133 132 131 132 131 130 128 127 124 120 117 113 109 105 103 104 105 107 108 107 108 108 107 106 105 105 105 105 108 109 108 107 107 110 116 118 106 107
146 142 143 142 138 134 132 131 131 130 130 128 127 125 121 118 115 112 109 106 104 104 106 107 107 107 105 105 104 104 104 105 107 110 113 110 106 107 106 99 93 106 110
144 142 147 144 140 136 134 132 131 131 130 130 128 126 122 119 117 114 111 108 107 105 104 104 106 105 105 105 105 104 104 106 110 119 127 115 109 105 104 100 102 109 110
145 146 149 144 142 139 137 135 134 133 132 131 129 126 123 120 118 115 112 109 108 106 105 106 106 106 105 105 106 105 107 109 118 146 117 108 110 107 107 107 109 110 111
145 145 143 148 145 142 141 139 138 137 135 132 130 128 125 122 119 116 113 111 109 108 107 107 106 106 106 106 106 107 108 113 134 122 96 100 104 109 110 110 111 112 112
148 149 146 152 148 146 144 143 141 139 137 134 131 129 126 122 119 116 114 113 110 109 109 108 107 106 107 108 108 109 112 132 156 99 103 106 107 111 111 111 112 112 113
153 149 148 153 150 149 148 146 144 141 139 136 133 130 127 124 120 117 115 115 113 112 111 110 108 107 108 110 111 111 117 145 102 100 103 100 104 113 114 112 112 113 113
153 150 148 153 152 152 151 149 147 145 142 139 134 131 128 124 121 118 117 116 114 114 114 112 110 110 110 112 116 119 130 185 113 107 102 101 106 114 113 113 114 113 113
157 151 154 158 156 155 154 152 151 149 146 143 138 134 131 127 123 119 117 117 117 115 116 116 114 111 110 114 119 124 126 301 113 113 110 107 114 116 115 115 115 116 117
161 157 159 163 160 162 159 156 154 151 148 145 142 139 135 132 128 130 131 121 120 119 120 120 117 115 114 115 123 132 147 200 120 119 111 113 122 123 122 123 123 122 120
167 164 167 165 164 167 162 156 158 154 151 151 150 147 156 153 142 150 118 125 126 123 122 123 121 124 131 128 128 146 177 151 116 108 102 112 128 128 128 128 129 129 127
172 173 171 169 166 168 162 158 163 163 159 168 157 160 161 141 142 128 123 130 129 127 129 127 137 164 188 145 143 180 158 127 126 122 109 121 133 134 133 134 135 135 132
174 175 173 171 168 171 162 163 165 163 161 167 158 162 152 152 150 144 145 146 146 154 151 147 177 170 142 103 127 138 121 126 119 115 119 133 141 143 142 140 141 140 139
178 179 175 172 173 174 170 167 167 166 168 165 161 169 162 160 158 150 153 149 158 149 143 159 152 127 116 124 126 121 132 131 117 108 122 140 149 151 149 151 151 150 150
181 181 179 175 174 173 172 177 173 173 172 163 163 168 170 167 165 154 151 159 161 148 159 170 151 135 144 146 144 136 125 116 116 127 128 146 155 157 160 161 160 161 161
182 180 182 181 177 176 177 180 175 175 171 167 170 166 178 171 161 165 165 169 163 162 149 170 150 155 163 138 142 132 140 126 123 139 135 149 161 164 171 173 172 174 174
182 182 186 185 181 182 181 182 180 179 175 174 169 169 179 178 168 177 171 178 164 155 153 168 156 166 168 158 143 142 141 138 136 142 143 148 158 167 175 181 183 180 181
182 184 189 185 183 185 180 181 182 184 177 176 174 177 183 179 177 188 179 179 164 172 172 157 181 173 164 164 154 154 139 145 144 159 162 163 162 162 169 175 183 186 188
184 185 184 183 186 184 179 180 185 180 182 182 184 186 182 185 186 195 190 166 181 182 186 188 160 185 171 170 162 159 161 151 157 162 157 165 162 180 170 161 180 191 198
184 184 184 184 185 182 180 181 182 184 188 191 191 189 186 190 192 198 191 183 195 185 184 182 163 191 190 190 185 149 171 163 170 160 183 176 179 189 188 171 183 192 197
179 182 185 186 182 180 183 185 186 188 189 192 195 192 194 195 190 202 204 183 203 193 195 189 193 183 196 185 188 184 184 190 181 179 194 197 187 191 189 189 207 197 187
181 185 186 186 183 184 185 187 189 188 192 192 194 190 197 196 195 199 209 199 199 193 194 197 207 212 193 192 217 214 200 185 200 196 192 200 204 195 198 198 199 210 230
186 188 189 187 186 187 184 182 181 182 191 192 195 193 197 199 199 204 200 209 199 207 194 201 204 216 211 203 223 236 238 214 177 178 201 204 209 215 216 196 202 200 216
187 186 187 190 187 185 185 188 188 193 196 197 195 191 194 200 202 201 200 202 208 214 196 208 205 217 222 213 201 237 277 336 267 180 191 188 200 216 226 228 209 200 210
182 183 184 187 188 186 188 191 195 201 200 196 196 193 197 196 203 203 199 200 203 214 211 218 198 223 221 230 219 209 215 223 248 262 206 190 195 202 204 216 222 219 211
175 179 182 184 189 187 188 192 199 202 200 196 196 195 198 195 199 200 200 201 204 211 207 211 212 213 228 233 241 232 224 226 234 238 235 222 212 194 199 210 221 220 220
Height
1525 1526 1527 1530 1533 1535 1537 1539 1541 1542 1544 1545 1546 1547 1548 1549 1550 1551 1552 1552 1553 1554 1555 1555 1556 1557 1558 1558 1559 1559 1560 1561 1561 1562 1563 1564 1565 1566 1567 1568 1569 1570 1570
1524 1526 1528 1531 1534 1536 1539 1541 1542 1544 1545 1547 1548 1549 1550 1551 1552 1553 1554 1554 1555 1556 1557 1557 1558 1559 1560 1560 1561 1562 1562 1563 1564 1564 1565 1566 1567 1568 1570 1571 1572 1572 1573
1525 1527 1529 1532 1535 1538 1540 1542 1544 1546 1547 1548 1550 1551 1552 1553 1554 1555 1556 1556 1557 1558 1559 1559 1560 1561 1562 1562 1563 1564 1565 1566 1566 1567 1568 1570 1570 1571 1572 1573 1573 1574 1575
1526 1528 1531 1534 1537 1539 1541 1544 1545 1547 1549 1550 1552 1553 1554 1555 1556 1557 1558 1559 1559 1560 1561 1562 1562 1563 1564 1565 1566 1566 1567 1568 1569 1570 1573 1573 1573 1574 1575 1575 1576 1577 1578
1528 1530 1532 1535 1538 1541 1543 1545 1547 1549 1550 1552 1553 1554 1556 1557 1558 1559 1560 1561 1561 1562 1563 1564 1565 1566 1566 1567 1568 1569 1570 1571 1572 1574 1575 1576 1576 1576 1577 1578 1578 1579 1580
1529 1532 1533 1536 1539 1542 1544 1546 1548 1550 1552 1553 1555 1556 1557 1559 1560 1561 1562 1563 1564 1564 1565 1566 1567 1568 1569 1570 1570 1571 1572 1573 1576 1578 1578 1578 1578 1578 1579 1580 1581 1582 1583
1531 1534 1535 1538 1541 1543 1546 1548 1550 1551 1553 1555 1556 1558 1559 1560 1561 1563 1563 1565 1566 1567 1568 1569 1570 1571 1571 1572 1573 1574 1575 1576 1580 1580 1580 1580 1580 1581 1582 1582 1583 1584 1585
1533 1535 1536 1539 1542 1544 1547 1549 1551 1553 1554 1556 1558 1559 1561 1562 1563 1564 1565 1566 1568 1569 1570 1571 1572 1573 1574 1575 1575 1576 1577 1578 1581 1582 1582 1582 1582 1583 1584 1585 1585 1586 1587
1535 1537 1537 1540 1542 1545 1548 1550 1552 1554 1556 1558 1559 1561 1562 1563 1565 1566 1567 1568 1569 1570 1572 1573 1574 1575 1576 1577 1578 1578 1579 1580 1584 1584 1585 1584 1584 1585 1586 1586 1587 1588 1589
1535 1537 1539 1542 1544 1546 1548 1551 1553 1555 1557 1559 1560 1562 1563 1565 1566 1568 1569 1570 1571 1572 1573 1575 1576 1577 1578 1579 1580 1580 1581 1582 1586 1586 1586 1585 1585 1586 1587 1588 1589 1590 1591
1534 1537 1539 1542 1545 1548 1550 1551 1554 1556 1558 1560 1561 1563 1565 1567 1569 1570 1571 1571 1572 1573 1575 1576 1577 1579 1580 1581 1581 1582 1583 1586 1587 1588 1587 1586 1587 1588 1589 1590 1591 1592 1592
1532 1536 1539 1542 1544 1548 1551 1552 1555 1557 1559 1561 1563 1564 1567 1568 1570 1572 1571 1572 1574 1575 1576 1578 1579 1580 1582 1584 1583 1584 1586 1587 1588 1589 1588 1587 1588 1589 1590 1591 1592 1593 1594
1530 1535 1538 1541 1543 1547 1550 1552 1554 1557 1558 1561 1563 1565 1567 1569 1571 1573 1573 1574 1575 1577 1579 1579 1581 1583 1584 1585 1586 1587 1587 1588 1589 1590 1588 1588 1589 1590 1591 1592 1593 1594 1595
1529 1533 1536 1539 1542 1546 1549 1552 1554 1556 1558 1561 1562 1565 1567 1569 1571 1573 1574 1576 1577 1579 1580 1582 1583 1584 1584 1585 1586 1587 1588 1589 1589 1590 1589 1589 1590 1591 1592 1593 1594 1595 1595
1528 1531 1534 1537 1540 1544 1547 1550 1553 1556 1558 1561 1562 1564 1567 1569 1571 1573 1574 1576 1578 1579 1580 1581 1583 1583 1585 1586 1587 1587 1588 1589 1589 1590 1590 1589 1590 1591 1592 1593 1594 1595 1596
1525 1528 1531 1534 1538 1542 1545 1549 1552 1555 1557 1560 1562 1564 1566 1569 1571 1573 1574 1576 1578 1580 1581 1582 1583 1584 1585 1586 1587 1588 1589 1589 1589 1590 1591 1590 1591 1591 1592 1593 1594 1595 1596
1523 1526 1529 1532 1536 1540 1544 1547 1551 1554 1557 1560 1562 1563 1565 1569 1570 1572 1575 1576 1578 1579 1580 1581 1582 1584 1585 1586 1587 1588 1588 1589 1590 1590 1591 1592 1591 1592 1592 1593 1594 1595 1596
1520 1523 1526 1531 1534 1538 1542 1545 1549 1553 1556 1558 1561 1563 1565 1568 1569 1571 1574 1576 1577 1579 1580 1581 1583 1584 1586 1586 1587 1588 1588 1588 1589 1590 1591 1591 1592 1593 1592 1593 1593 1594 1595
1518 1521 1524 1527 1531 1536 1540 1543 1547 1551 1554 1557 1560 1562 1564 1566 1569 1571 1574 1575 1576 1579 1580 1582 1583 1584 1585 1586 1587 1587 1588 1589 1589 1590 1591 1592 1592 1592 1593 1592 1593 1593 1594
1515 1518 1521 1525 1529 1534 1538 1542 1545 1549 1552 1555 1558 1560 1563 1565 1568 1570 1572 1574 1576 1578 1579 1581 1582 1583 1584 1585 1587 1587 1588 1589 1589 1590 1591 1591 1592 1592 1593 1593 1592 1593 1593
1513 1516 1519 1523 1527 1531 1535 1539 1542 1546 1550 1553 1556 1559 1561 1564 1566 1569 1572 1573 1575 1577 1578 1580 1581 1582 1584 1585 1586 1587 1588 1588 1589 1589 1590 1591 1591 1592 1592 1592 1592 1593 1593
1510 1513 1517 1520 1524 1528 1532 1536 1540 1544 1548 1551 1554 1556 1559 1562 1565 1568 1569 1572 1573 1575 1577 1578 1579 1582 1583 1584 1585 1586 1587 1588 1587 1588 1589 1589 1590 1590 1591 1591 1591 1591 1592
1509 1511 1515 1518 1522 1526 1530 1534 1538 1542 1545 1549 1551 1554 1557 1560 1563 1565 1567 1570 1572 1574 1576 1577 1578 1580 1582 1583 1584 1585 1585 1585 1586 1587 1587 1588 1588 1589 1590 1590 1590 1590 1590
1508 1510 1513 1516 1520 1523 1527 1531 1535 1538 1541 1545 1549 1552 1555 1558 1561 1564 1566 1568 1570 1573 1574 1576 1577 1579 1580 1582 1582 1583 1584 1584 1585 1585 1586 1586 1586 1587 1588 1588 1589 1589 1589
1507 1509 1512 1514 1517 1521 1524 1528 1532 1535 1539 1543 1547 1549 1552 1555 1558 1561 1564 1566 1568 1571 1572 1574 1575 1577 1578 1580 1581 1582 1583 1583 1584 1584 1584 1585 1586 1586 1586 1586 1587 1588 1588
1506 1508 1510 1512 1515 1518 1521 1525 1528 1532 1535 1539 1543 1546 1549 1553 1556 1559 1561 1564 1566 1568 1570 1571 1573 1574 1576 1577 1579 1580 1581 1582 1583 1583 1583 1584 1584 1584 1585 1585 1585 1586 1586